{"data":{"norad_id":64441,"intl_designator":"2025-130D","name":"STARLINK-34453","alt_names":[],"object_type":"PAYLOAD","status":"ACTIVE","operator":null,"country":"US","launch_date":"2025-06-18","launch_site_code":"AFETR","launch_vehicle":null,"mission":null,"orbit_class":"UNKNOWN","rcs_meters":null,"size_class":null,"mass_kg":null,"dimensions":null,"purposes":["comms"],"wikipedia_slug":null,"has_3d_model":false,"image_url":null,"decayed_at":null,"tle_current":{"epoch":"2026-05-25T03:21:02.221056Z","epoch_age_seconds":58893,"freshness":"FRESH","line1":"1 64441U 25130D   26145.13960904  .00017750  00000+0  53505-3 0  9990","line2":"2 64441  53.1583  93.0316 0001114  97.5387 262.5743 15.34410605 52414","mean_motion":15.34410605,"eccentricity":0.0001114,"inclination_deg":53.1583,"raan_deg":93.0316,"arg_perigee_deg":97.5387,"mean_anomaly_deg":262.5743,"bstar":0.00053505,"rev_number":5241,"period_min":93.84710945738,"perigee_km":461.90965400233,"apogee_km":463.43378618516,"semimajor_km":6840.8087200937,"source":"CELESTRAK","updated_at":"2026-05-25T13:38:20.446871Z"}}}